This is the latest recevied weather packets stored in our database for station/object KC9DRE. If no packets are shown the sender has not sent any weather packets the latest 10 day(s).
| Time | Temp. | Humidity | Pressure | Rain* | Wind** | Luminosity | Snow |
|---|---|---|---|---|---|---|---|
| 1777161844 | 20.56° C | 56% | 1011.2 hPa | 0 mm | - | 18 W/m² | - |
| 1777161540 | 21.11° C | 56% | 1011.1 hPa | 0 mm | - | 21 W/m² | - |
| 1777161236 | 21.67° C | 54% | 1011.1 hPa | 0 mm | - | 24 W/m² | - |
| 1777160932 | 21.67° C | 53% | 1011.1 hPa | 0 mm | - | 27 W/m² | - |
| 1777160628 | 22.22° C | 54% | 1011.2 hPa | 0 mm | - | 31 W/m² | - |
| 1777160324 | 22.22° C | 55% | 1011 hPa | 0 mm | - | 36 W/m² | - |
| 1777160020 | 22.22° C | 53% | 1010.9 hPa | 0 mm | - | 37 W/m² | - |
| 1777159716 | 22.22° C | 52% | 1011 hPa | 0 mm | - | 42 W/m² | - |
| 1777159412 | 22.22° C | 53% | 1010.9 hPa | 0 mm | - | 52 W/m² | - |
| 1777159109 | 22.22° C | 51% | 1010.9 hPa | 0 mm | - | 54 W/m² | - |
| 1777158805 | 22.78° C | 51% | 1010.7 hPa | 0 mm | - | 51 W/m² | - |
| 1777158504 | 23.33° C | 52% | 1010.8 hPa | 0 mm | - | 59 W/m² | - |
| 1777158200 | 23.33° C | 49% | 1010.8 hPa | 0 mm | - | 95 W/m² | - |
| 1777157896 | 23.33° C | 51% | 1010.7 hPa | 0 mm | - | 121 W/m² | - |
| 1777157592 | 23.89° C | 47% | 1010.7 hPa | 0 mm | - | 135 W/m² | - |
| 1777157289 | 23.89° C | 47% | 1010.7 hPa | 0 mm | - | 150 W/m² | - |
| 1777156988 | 24.44° C | 46% | 1010.7 hPa | 0 mm | - | 163 W/m² | - |
| 1777156683 | 24.44° C | 47% | 1010.7 hPa | 0 mm | - | 176 W/m² | - |
| 1777156380 | 23.89° C | 49% | 1010.7 hPa | 0 mm | - | 194 W/m² | - |
| 1777156076 | 23.89° C | 49% | 1010.7 hPa | 0 mm | - | 209 W/m² | - |
| 1777155773 | 23.89° C | 48% | 1010.7 hPa | 0 mm | - | 225 W/m² | - |
| 1777155468 | 23.89° C | 50% | 1010.8 hPa | 0 mm | - | 249 W/m² | - |
| 1777155166 | 23.33° C | 50% | 1010.6 hPa | 0 mm | - | 267 W/m² | - |
| 1777154863 | 23.89° C | 50% | 1010.7 hPa | 0 mm | - | 241 W/m² | - |
| 1777154560 | 23.89° C | 48% | 1010.6 hPa | 0 mm | - | 306 W/m² | - |
* Rain latest hour (hover to see other rain measurements)
** Current wind speed in m/s (hover to see current wind gust speed)